,,Stat5,,Stat1,,Stat2,,Stat3,,Stat4,,Wind1,,Wind1,
time,status,PA1M_AVG,status,PR1M_SUM,status,RH1M_AVG,status,SR1M_AVG,status,TA1M_AVG,status,W1dAve1m,status,W1sAve1m,
2000-08-29, 00:00:01,VALID,919.684,VALID,0,VALID,95.8714,VALID,-0.0169808,VALID,19.8533,VALID,116,VALID,0,
2000-08-29, 00:01:00,VALID,919.666,VALID,0,VALID,95.5382,VALID,0,VALID,19.8439,VALID,112,VALID,0,
2000-08-29, 00:02:00,VALID,919.646,VALID,0,VALID,95.907,VALID,-0.0169808,VALID,19.8536,VALID,82,VALID,0,
2000-08-29, 00:03:00,VALID,919.66,VALID,0,VALID,95.9146,VALID,0,VALID,19.8632,VALID,81,VALID,0,
2000-08-29, 00:04:00,VALID,919.666,VALID,0,VALID,95.9667,VALID,-0.0509425,VALID,19.8635,VALID,81,VALID,0,
2000-08-29, 00:05:00,VALID,919.669,VALID,0,VALID,96.0583,VALID,-0.0339617,VALID,19.8732,VALID,81,VALID,0,
2000-08-29, 00:06:00,VALID,919.672,VALID,0,VALID,96.029,VALID,-0.0509425,VALID,19.8799,VALID,82,VALID,0,
2000-08-29, 00:07:00,VALID,919.661,VALID,0,VALID,95.9362,VALID,-0.0509425,VALID,19.8826,VALID,85,VALID,0,
2000-08-29, 00:08:00,VALID,919.626,VALID,0,VALID,96.057,VALID,-0.0509425,VALID,19.8762,VALID,93,VALID,0,
2000-08-29, 00:09:00,VALID,919.595,VALID,0,VALID,95.8688,VALID,-0.0339617,VALID,19.8861,VALID,104,VALID,0,
2000-08-29, 00:10:00,VALID,919.563,VALID,0,VALID,95.8574,VALID,-0.0339617,VALID,19.8891,VALID,90,VALID,0,
2000-08-29, 00:11:00,VALID,919.531,VALID,0,VALID,95.6921,VALID,-0.0509425,VALID,19.8923,VALID,88,VALID,0,
2000-08-29, 00:12:00,VALID,919.506,VALID,0,VALID,95.6793,VALID,-0.0509425,VALID,19.8888,VALID,96,VALID,0,
2000-08-29, 00:13:00,VALID,919.495,VALID,0,VALID,95.8497,VALID,-0.0169808,VALID,19.9154,VALID,95,VALID,0.737179,
2000-08-29, 00:14:00,VALID,919.485,VALID,0,VALID,96.0875,VALID,0,VALID,19.9507,VALID,91,VALID,1.058,
2000-08-29, 00:15:00,VALID,919.48,VALID,0,VALID,96.3088,VALID,-0.0169808,VALID,20.0057,VALID,97,VALID,0.877298,
2000-08-29, 00:16:00,VALID,919.477,VALID,0,VALID,96.2032,VALID,-0.0169808,VALID,20.0439,VALID,88,VALID,0.638091,
2000-08-29, 00:17:00,VALID,919.475,VALID,0,VALID,95.8357,VALID,0,VALID,20.0571,VALID,99,VALID,0.531883,
2000-08-29, 00:18:00,VALID,919.473,VALID,0,VALID,96.057,VALID,0,VALID,20.0931,VALID,99,VALID,0.597128,
2000-08-29, 00:19:00,VALID,919.465,VALID,0,VALID,95.865,VALID,-0.0169808,VALID,20.1023,VALID,106,VALID,0.488715,
2000-08-29, 00:20:00,VALID,919.444,VALID,0,VALID,95.5725,VALID,0,VALID,20.0991,VALID,102,VALID,0.322316,
2000-08-29, 00:21:00,VALID,919.434,VALID,0,VALID,95.5089,VALID,-0.0169808,VALID,20.0961,VALID,100,VALID,0.521959,
2000-08-29, 00:22:00,VALID,919.396,VALID,0,VALID,95.5674,VALID,0,VALID,20.0601,VALID,96,VALID,0.462723,
2000-08-29, 00:23:00,VALID,919.355,VALID,0,VALID,95.865,VALID,0,VALID,20.0601,VALID,96,VALID,0.297697,
2000-08-29, 00:24:00,VALID,919.316,VALID,0,VALID,95.9095,VALID,0,VALID,20.0506,VALID,92,VALID,0.387035,
2000-08-29, 00:25:00,VALID,919.279,VALID,0,VALID,95.7823,VALID,-0.0339617,VALID,20.0377,VALID,91,VALID,0.564762,
2000-08-29, 00:26:00,VALID,919.265,VALID,0,VALID,95.6565,VALID,0,VALID,20.0121,VALID,94,VALID,0.848184,
2000-08-29, 00:27:00,VALID,919.228,VALID,0,VALID,95.6781,VALID,-0.0169808,VALID,19.9704,VALID,90,VALID,1.0154,
2000-08-29, 00:28:00,VALID,919.215,VALID,0,VALID,95.9896,VALID,0,VALID,19.9018,VALID,83,VALID,0.219835,
2000-08-29, 00:29:00,VALID,919.209,VALID,0,VALID,96.2198,VALID,-0.0169808,VALID,19.8983,VALID,87,VALID,0.213542,
2000-08-29, 00:30:00,VALID,919.165,VALID,0,VALID,96.5644,VALID,-0.0169808,VALID,19.9187,VALID,97,VALID,0.742417,
2000-08-29, 00:31:00,VALID,919.142,VALID,0,VALID,96.4334,VALID,0,VALID,19.8956,VALID,95,VALID,0.641892,
2000-08-29, 00:32:00,VALID,919.118,VALID,0,VALID,96.441,VALID,-0.0169808,VALID,19.8598,VALID,84,VALID,0.408784,
2000-08-29, 00:33:00,VALID,919.084,VALID,0,VALID,96.778,VALID,-0.0169808,VALID,19.8732,VALID,70,VALID,0.574535,
2000-08-29, 00:34:00,VALID,919.055,VALID,0,VALID,96.8874,VALID,0,VALID,19.87,VALID,92,VALID,0.119575,
2000-08-29, 00:35:00,VALID,919.045,VALID,0,VALID,97.073,VALID,0,VALID,19.8953,VALID,90,VALID,0.0408654,
2000-08-29, 00:36:00,VALID,919.026,VALID,0,VALID,96.9815,VALID,0.0169808,VALID,19.8988,VALID,67,VALID,0.741765,
2000-08-29, 00:37:00,VALID,919.026,VALID,0,VALID,96.937,VALID,-0.0169808,VALID,19.9115,VALID,82,VALID,0.64308,
2000-08-29, 00:38:00,VALID,919.035,VALID,0,VALID,96.8403,VALID,0,VALID,19.9047,VALID,17,VALID,0.317845,
2000-08-29, 00:39:00,VALID,919.049,VALID,0,VALID,96.8683,VALID,0.0169808,VALID,19.9276,VALID,344,VALID,0.0586993,
2000-08-29, 00:40:00,VALID,919.065,VALID,0,VALID,96.5949,VALID,0,VALID,19.9142,VALID,351,VALID,0,
2000-08-29, 00:41:00,VALID,919.089,VALID,0,VALID,96.5529,VALID,0,VALID,19.9214,VALID,104,VALID,0.0842483,
2000-08-29, 00:42:00,VALID,919.107,VALID,0,VALID,96.4245,VALID,0,VALID,19.9246,VALID,116,VALID,0,
2000-08-29, 00:43:00,VALID,919.142,VALID,0,VALID,96.3393,VALID,0,VALID,19.9274,VALID,117,VALID,0,
2000-08-29, 00:44:00,VALID,919.144,VALID,0,VALID,95.9667,VALID,0.0169808,VALID,19.9149,VALID,101,VALID,0,
2000-08-29, 00:45:00,VALID,919.158,VALID,0,VALID,95.7798,VALID,0,VALID,19.9023,VALID,88,VALID,0,
2000-08-29, 00:46:00,VALID,919.16,VALID,0,VALID,95.6298,VALID,0.0169808,VALID,19.9052,VALID,85,VALID,0,
2000-08-29, 00:47:00,VALID,919.162,VALID,0,VALID,95.3792,VALID,0,VALID,19.8791,VALID,74,VALID,0,
2000-08-29, 00:48:00,VALID,919.152,VALID,0,VALID,95.3792,VALID,0,VALID,19.8891,VALID,70,VALID,0,
2000-08-29, 00:49:00,VALID,919.152,VALID,0,VALID,95.3729,VALID,0,VALID,19.8883,VALID,38,VALID,0,
2000-08-29, 00:50:00,VALID,919.142,VALID,0,VALID,95.4416,VALID,0.0169808,VALID,19.8953,VALID,33,VALID,0,
2000-08-29, 00:51:00,VALID,919.136,VALID,0,VALID,95.5217,VALID,0.0169808,VALID,19.9149,VALID,33,VALID,0,
2000-08-29, 00:52:00,VALID,919.108,VALID,0,VALID,95.6895,VALID,0,VALID,19.9177,VALID,32,VALID,0,
2000-08-29, 00:53:00,VALID,919.096,VALID,0,VALID,95.8548,VALID,0,VALID,19.9015,VALID,31,VALID,0,
2000-08-29, 00:54:00,VALID,919.09,VALID,0,VALID,96.0189,VALID,0,VALID,19.8891,VALID,31,VALID,0,
2000-08-29, 00:55:00,VALID,919.06,VALID,0,VALID,96.099,VALID,0,VALID,19.8598,VALID,31,VALID,0,
2000-08-29, 00:56:00,VALID,919.015,VALID,0,VALID,96.118,VALID,0,VALID,19.824,VALID,31,VALID,0,
2000-08-29, 00:57:00,VALID,918.973,VALID,0,VALID,96.1816,VALID,0,VALID,19.8178,VALID,31,VALID,0,
2000-08-29, 00:58:00,VALID,918.937,VALID,0,VALID,96.1727,VALID,0,VALID,19.7825,VALID,31,VALID,0,
2000-08-29, 00:59:00,VALID,918.913,VALID,0,VALID,96.249,VALID,0,VALID,19.7467,VALID,31,VALID,0,
2000-08-29, 01:00:00,VALID,918.91,VALID,0,VALID,96.3177,VALID,0.0169808,VALID,19.7208,VALID,31,VALID,0,
2000-08-29, 01:01:00,VALID,918.9,VALID,0,VALID,96.5122,VALID,0.0169808,VALID,19.7015,VALID,31,VALID,0,
2000-08-29, 01:02:00,VALID,918.916,VALID,0,VALID,96.6648,VALID,0,VALID,19.6726,VALID,31,VALID,0,
2000-08-29, 01:03:00,VALID,918.916,VALID,0,VALID,96.2935,VALID,-0.0169808,VALID,19.6016,VALID,31,VALID,0,
2000-08-29, 01:04:00,VALID,918.906,VALID,0,VALID,95.7035,VALID,0.0169808,VALID,19.5109,VALID,80,VALID,0,
2000-08-29, 01:05:00,VALID,918.88,VALID,0,VALID,95.9311,VALID,0.0169808,VALID,19.4564,VALID,85,VALID,0,
2000-08-29, 01:06:00,VALID,918.846,VALID,0,VALID,96.6534,VALID,0.0339617,VALID,19.4467,VALID,85,VALID,0,
2000-08-29, 01:07:00,VALID,918.812,VALID,0,VALID,96.7449,VALID,0,VALID,19.4013,VALID,102,VALID,0,
2000-08-29, 01:08:00,VALID,918.765,VALID,0,VALID,96.5415,VALID,0,VALID,19.3307,VALID,109,VALID,0,
2000-08-29, 01:09:00,VALID,918.723,VALID,0,VALID,96.7678,VALID,-0.0169808,VALID,19.2688,VALID,108,VALID,0,
2000-08-29, 01:10:00,VALID,918.7,VALID,0,VALID,97.0285,VALID,-0.0169808,VALID,19.2499,VALID,106,VALID,0,
2000-08-29, 01:11:00,VALID,918.703,VALID,0,VALID,97.2714,VALID,0,VALID,19.2631,VALID,78,VALID,0,
2000-08-29, 01:12:00,VALID,918.7,VALID,0,VALID,97.4812,VALID,-0.0169808,VALID,19.2954,VALID,58,VALID,0,
2000-08-29, 01:13:01,VALID,918.689,VALID,0,VALID,97.5143,VALID,0.0169808,VALID,19.2977,VALID,49,VALID,0,
2000-08-29, 01:14:00,VALID,918.695,VALID,0,VALID,97.6274,VALID,0.0509425,VALID,19.3258,VALID,49,VALID,0,
2000-08-29, 01:15:00,VALID,918.686,VALID,0,VALID,97.6478,VALID,0,VALID,19.3687,VALID,53,VALID,0,
2000-08-29, 01:16:00,VALID,918.686,VALID,0,VALID,97.4774,VALID,0.0509425,VALID,19.3553,VALID,78,VALID,0,
2000-08-29, 01:17:00,VALID,918.677,VALID,0,VALID,97.1353,VALID,0.0679233,VALID,19.3521,VALID,114,VALID,0,
2000-08-29, 01:18:00,VALID,918.676,VALID,0,VALID,96.7055,VALID,0.0849042,VALID,19.3168,VALID,114,VALID,0,
2000-08-29, 01:19:00,VALID,918.676,VALID,0,VALID,96.6025,VALID,0.101885,VALID,19.2974,VALID,110,VALID,0,
2000-08-29, 01:20:00,VALID,918.682,VALID,0,VALID,96.7818,VALID,0.0169808,VALID,19.2979,VALID,73,VALID,0.0833333,
2000-08-29, 01:21:00,VALID,918.684,VALID,0,VALID,96.7373,VALID,0.0849042,VALID,19.2974,VALID,51,VALID,0.0523649,
2000-08-29, 01:22:00,VALID,918.672,VALID,0,VALID,96.8174,VALID,0.0169808,VALID,19.2977,VALID,63,VALID,0.107366,
2000-08-29, 01:23:00,VALID,918.666,VALID,0,VALID,96.778,VALID,0.0679233,VALID,19.3173,VALID,75,VALID,0,
2000-08-29, 01:24:00,VALID,918.651,VALID,0,VALID,96.4245,VALID,0.0339617,VALID,19.3011,VALID,81,VALID,0,
2000-08-29, 01:25:01,VALID,918.632,VALID,0,VALID,96.4614,VALID,0.0849042,VALID,19.2877,VALID,81,VALID,0,
2000-08-29, 01:26:00,VALID,918.617,VALID,0,VALID,96.4715,VALID,0.0679233,VALID,19.2977,VALID,81,VALID,0,
2000-08-29, 01:27:00,VALID,918.611,VALID,0,VALID,96.4309,VALID,0.0509425,VALID,19.3106,VALID,81,VALID,0,
2000-08-29, 01:28:00,VALID,918.595,VALID,0,VALID,96.1104,VALID,0.0339617,VALID,19.3143,VALID,192,VALID,0,
2000-08-29, 01:29:00,VALID,918.589,VALID,0,VALID,95.4606,VALID,-0.0169808,VALID,19.2698,VALID,235,VALID,0,
2000-08-29, 01:30:00,VALID,918.608,VALID,0,VALID,95.2953,VALID,-0.0339617,VALID,19.2246,VALID,249,VALID,0.131664,
2000-08-29, 01:31:00,VALID,918.628,VALID,0,VALID,95.9044,VALID,-0.0509425,VALID,19.1987,VALID,266,VALID,0.111698,
2000-08-29, 01:32:00,VALID,918.622,VALID,0,VALID,96.3686,VALID,-0.0509425,VALID,19.1893,VALID,267,VALID,0,
2000-08-29, 01:33:00,VALID,918.629,VALID,0,VALID,96.5682,VALID,-0.0849042,VALID,19.1766,VALID,271,VALID,0,
2000-08-29, 01:34:00,VALID,918.627,VALID,0,VALID,96.8047,VALID,-0.0509425,VALID,19.1793,VALID,266,VALID,0,
2000-08-29, 01:35:00,VALID,918.597,VALID,0,VALID,96.7895,VALID,-0.0509425,VALID,19.1768,VALID,268,VALID,0,
2000-08-29, 01:36:00,VALID,918.564,VALID,0,VALID,96.7526,VALID,-0.0509425,VALID,19.1667,VALID,274,VALID,0,
2000-08-29, 01:37:00,VALID,918.536,VALID,0,VALID,96.7577,VALID,-0.0679233,VALID,19.157,VALID,274,VALID,0,
2000-08-29, 01:38:00,VALID,918.541,VALID,0,VALID,96.9001,VALID,-0.0679233,VALID,19.1798,VALID,274,VALID,0,
2000-08-29, 01:39:00,VALID,918.523,VALID,0,VALID,96.9916,VALID,-0.0679233,VALID,19.1992,VALID,274,VALID,0,
2000-08-29, 01:40:01,VALID,918.527,VALID,0,VALID,96.9433,VALID,-0.0849042,VALID,19.2087,VALID,274,VALID,0,
2000-08-29, 01:41:00,VALID,918.511,VALID,0,VALID,96.4054,VALID,-0.0339617,VALID,19.1634,VALID,274,VALID,0,
2000-08-29, 01:42:00,VALID,918.49,VALID,0,VALID,95.9209,VALID,-0.0509425,VALID,19.1314,VALID,274,VALID,0,
2000-08-29, 01:43:01,VALID,918.474,VALID,0,VALID,95.3869,VALID,-0.0849042,VALID,19.0769,VALID,274,VALID,0,
2000-08-29, 01:44:00,VALID,918.451,VALID,0,VALID,95.2343,VALID,-0.0509425,VALID,19.025,VALID,285,VALID,0,
2000-08-29, 01:45:00,VALID,918.41,VALID,0,VALID,95.6501,VALID,-0.0169808,VALID,18.9989,VALID,28,VALID,0,
2000-08-29, 01:46:00,VALID,918.388,VALID,0,VALID,96.2808,VALID,-0.0339617,VALID,18.9959,VALID,101,VALID,0,
2000-08-29, 01:47:00,VALID,918.376,VALID,0,VALID,96.4741,VALID,-0.0509425,VALID,18.9664,VALID,101,VALID,0,
2000-08-29, 01:48:00,VALID,918.371,VALID,0,VALID,96.7602,VALID,-0.0339617,VALID,18.9569,VALID,101,VALID,0,
2000-08-29, 01:49:00,VALID,918.374,VALID,0,VALID,97.1493,VALID,-0.0169808,VALID,18.9701,VALID,101,VALID,0,
2000-08-29, 01:50:00,VALID,918.341,VALID,0,VALID,97.2612,VALID,-0.0509425,VALID,18.9766,VALID,101,VALID,0,
2000-08-29, 01:51:00,VALID,918.336,VALID,0,VALID,97.3184,VALID,-0.0169808,VALID,18.9666,VALID,101,VALID,0,
2000-08-29, 01:52:00,VALID,918.323,VALID,0,VALID,97.2968,VALID,0,VALID,18.9634,VALID,101,VALID,0,
2000-08-29, 01:53:00,VALID,918.299,VALID,0,VALID,97.279,VALID,-0.0849042,VALID,18.9473,VALID,101,VALID,0,
2000-08-29, 01:54:00,VALID,918.269,VALID,0,VALID,97.1353,VALID,-0.0509425,VALID,18.9281,VALID,101,VALID,0,
2000-08-29, 01:55:01,VALID,918.245,VALID,0,VALID,97.2701,VALID,-0.0339617,VALID,18.9343,VALID,101,VALID,0,
2000-08-29, 01:56:00,VALID,918.24,VALID,0,VALID,97.3273,VALID,-0.0339617,VALID,18.9445,VALID,101,VALID,0,
2000-08-29, 01:57:00,VALID,918.219,VALID,0,VALID,97.3922,VALID,-0.0679233,VALID,18.9413,VALID,101,VALID,0,
2000-08-29, 01:58:01,VALID,918.203,VALID,0,VALID,97.4494,VALID,-0.0509425,VALID,18.9373,VALID,101,VALID,0,
2000-08-29, 01:59:00,VALID,918.198,VALID,0,VALID,97.4965,VALID,0,VALID,18.9604,VALID,101,VALID,0,
2000-08-29, 02:00:00,VALID,918.179,VALID,0,VALID,97.5295,VALID,-0.0169808,VALID,18.9535,VALID,101,VALID,0,
2000-08-29, 02:01:00,VALID,918.143,VALID,0,VALID,97.485,VALID,-0.0509425,VALID,18.9507,VALID,101,VALID,0,
2000-08-29, 02:02:00,VALID,918.123,VALID,0,VALID,97.5066,VALID,-0.0339617,VALID,18.9803,VALID,101,VALID,0,
2000-08-29, 02:03:00,VALID,918.097,VALID,0,VALID,97.5613,VALID,-0.0169808,VALID,18.9833,VALID,101,VALID,0,
2000-08-29, 02:04:00,VALID,918.086,VALID,0,VALID,97.5677,VALID,-0.0509425,VALID,18.9798,VALID,101,VALID,0,
2000-08-29, 02:05:00,VALID,918.064,VALID,0,VALID,97.3439,VALID,-0.0509425,VALID,18.9641,VALID,101,VALID,0,
2000-08-29, 02:06:00,VALID,918.07,VALID,0,VALID,96.8772,VALID,0,VALID,18.9055,VALID,101,VALID,0,
2000-08-29, 02:07:00,VALID,918.06,VALID,0,VALID,96.3444,VALID,0,VALID,18.8474,VALID,101,VALID,0,
2000-08-29, 02:08:00,VALID,918.062,VALID,0,VALID,96.3266,VALID,0,VALID,18.8344,VALID,101,VALID,0,
2000-08-29, 02:09:00,VALID,918.05,VALID,0,VALID,96.2325,VALID,0,VALID,18.7954,VALID,101,VALID,0,
2000-08-29, 02:10:01,VALID,918.038,VALID,0,VALID,96.6623,VALID,-0.0509425,VALID,18.7927,VALID,101,VALID,0,
2000-08-29, 02:11:00,VALID,918.036,VALID,0,VALID,97.1315,VALID,-0.0339617,VALID,18.8021,VALID,96,VALID,0.380068,
2000-08-29, 02:12:00,VALID,918.044,VALID,0,VALID,97.4405,VALID,-0.0339617,VALID,18.8185,VALID,91,VALID,0.648214,
2000-08-29, 02:13:01,VALID,918.052,VALID,0,VALID,97.6948,VALID,0,VALID,18.8146,VALID,91,VALID,0.677484,
2000-08-29, 02:14:00,VALID,918.072,VALID,0,VALID,97.8449,VALID,0.0339617,VALID,18.8238,VALID,92,VALID,0.75071,
2000-08-29, 02:15:00,VALID,918.088,VALID,0,VALID,97.9682,VALID,0.0339617,VALID,18.8273,VALID,104,VALID,0.818934,
2000-08-29, 02:16:00,VALID,918.089,VALID,0,VALID,97.9898,VALID,0.0509425,VALID,18.798,VALID,105,VALID,0.800042,
2000-08-29, 02:17:00,VALID,918.089,VALID,0,VALID,98.3675,VALID,0.0509425,VALID,18.8757,VALID,100,VALID,0.490076,
2000-08-29, 02:18:00,VALID,918.09,VALID,0,VALID,98.5977,VALID,0.0679233,VALID,18.9401,VALID,113,VALID,0.271537,
2000-08-29, 02:19:00,VALID,918.083,VALID,0,VALID,98.6867,VALID,0.0339617,VALID,18.9786,VALID,133,VALID,0,
2000-08-29, 02:20:00,VALID,918.072,VALID,0,VALID,98.6702,VALID,0.0339617,VALID,18.9851,VALID,152,VALID,0,
2000-08-29, 02:21:00,VALID,918.058,VALID,0,VALID,98.6562,VALID,0.0169808,VALID,19.0019,VALID,166,VALID,0,
2000-08-29, 02:22:00,VALID,918.045,VALID,0,VALID,98.5773,VALID,0.0339617,VALID,18.9828,VALID,176,VALID,0,
2000-08-29, 02:23:00,VALID,918.026,VALID,0,VALID,98.515,VALID,0.0339617,VALID,18.9535,VALID,176,VALID,0,
2000-08-29, 02:24:00,VALID,918.024,VALID,0,VALID,98.4502,VALID,0.0509425,VALID,18.9207,VALID,176,VALID,0,
2000-08-29, 02:25:01,VALID,917.997,VALID,0,VALID,98.3675,VALID,0.0849042,VALID,18.9078,VALID,176,VALID,0,
2000-08-29, 02:26:00,VALID,917.973,VALID,0,VALID,98.3459,VALID,0.0339617,VALID,18.8886,VALID,176,VALID,0,
2000-08-29, 02:27:00,VALID,917.956,VALID,0,VALID,98.3929,VALID,0.0679233,VALID,18.8983,VALID,176,VALID,0,
2000-08-29, 02:28:01,VALID,917.921,VALID,0,VALID,98.1857,VALID,0.0849042,VALID,18.8392,VALID,176,VALID,0,
2000-08-29, 02:29:00,VALID,917.911,VALID,0,VALID,97.7368,VALID,-0.0509425,VALID,18.7375,VALID,173,VALID,0,
2000-08-29, 02:30:00,VALID,917.904,VALID,0,VALID,97.4558,VALID,-0.0169808,VALID,18.6764,VALID,157,VALID,0,
2000-08-29, 02:31:00,VALID,917.91,VALID,0,VALID,97.4952,VALID,0,VALID,18.6506,VALID,157,VALID,0,
2000-08-29, 02:32:00,VALID,917.902,VALID,0,VALID,97.5855,VALID,-0.0339617,VALID,18.6409,VALID,150,VALID,0,
2000-08-29, 02:33:00,VALID,917.903,VALID,0,VALID,97.3134,VALID,-0.0339617,VALID,18.5897,VALID,140,VALID,0,
2000-08-29, 02:34:00,VALID,917.879,VALID,0,VALID,97.4265,VALID,-0.0509425,VALID,18.5698,VALID,125,VALID,0,
2000-08-29, 02:35:00,VALID,917.867,VALID,0,VALID,97.4392,VALID,0,VALID,18.5278,VALID,117,VALID,0.380008,
2000-08-29, 02:36:00,VALID,917.856,VALID,0,VALID,97.4621,VALID,-0.0169808,VALID,18.4828,VALID,101,VALID,0.810389,
2000-08-29, 02:37:00,VALID,917.847,VALID,0,VALID,97.4291,VALID,-0.0169808,VALID,18.4309,VALID,92,VALID,0.88683,
2000-08-29, 02:38:00,VALID,917.824,VALID,0,VALID,98.1132,VALID,-0.0339617,VALID,18.5082,VALID,85,VALID,0.963405,
2000-08-29, 02:39:00,VALID,917.807,VALID,0,VALID,98.4006,VALID,-0.0509425,VALID,18.5703,VALID,81,VALID,0.773649,
2000-08-29, 02:40:01,VALID,917.784,VALID,0,VALID,98.8189,VALID,-0.0509425,VALID,18.7087,VALID,73,VALID,0.827303,
2000-08-29, 02:41:00,VALID,917.739,VALID,0,VALID,99.03,VALID,-0.0679233,VALID,18.858,VALID,86,VALID,0.754012,
2000-08-29, 02:42:00,VALID,917.691,VALID,0,VALID,98.9906,VALID,-0.0849042,VALID,18.8739,VALID,85,VALID,0.702232,
2000-08-29, 02:43:01,VALID,917.654,VALID,0,VALID,98.8723,VALID,-0.0509425,VALID,18.8515,VALID,93,VALID,0.783854,
2000-08-29, 02:44:00,VALID,917.609,VALID,0,VALID,98.8698,VALID,-0.0679233,VALID,18.8774,VALID,89,VALID,0.687737,
2000-08-29, 02:45:00,VALID,917.591,VALID,0,VALID,98.8622,VALID,-0.0679233,VALID,18.9099,VALID,88,VALID,0.438649,
2000-08-29, 02:46:00,VALID,917.588,VALID,0,VALID,98.852,VALID,-0.0679233,VALID,18.9323,VALID,59,VALID,0.390836,
2000-08-29, 02:47:00,VALID,917.593,VALID,0,VALID,98.8533,VALID,-0.0679233,VALID,18.9711,VALID,51,VALID,0.0337838,
2000-08-29, 02:48:01,VALID,917.603,VALID,0,VALID,98.6638,VALID,-0.0679233,VALID,18.9157,VALID,51,VALID,0,
2000-08-29, 02:49:01,VALID,917.604,VALID,0,VALID,98.5786,VALID,-0.0679233,VALID,18.9094,VALID,74,VALID,0,
2000-08-29, 02:50:00,VALID,917.589,VALID,0,VALID,98.6333,VALID,-0.0679233,VALID,18.9388,VALID,87,VALID,0,
2000-08-29, 02:51:01,VALID,917.578,VALID,0,VALID,98.6244,VALID,-0.0339617,VALID,18.9445,VALID,101,VALID,0,
2000-08-29, 02:52:00,VALID,917.565,VALID,0,VALID,98.6015,VALID,-0.0509425,VALID,18.9482,VALID,102,VALID,0,
2000-08-29, 02:53:00,VALID,917.557,VALID,0,VALID,98.6473,VALID,-0.0679233,VALID,18.9674,VALID,102,VALID,0,
2000-08-29, 02:54:00,VALID,917.555,VALID,0,VALID,98.6829,VALID,-0.0679233,VALID,19.0034,VALID,103,VALID,0,
2000-08-29, 02:55:01,VALID,917.544,VALID,0,VALID,98.7019,VALID,-0.0339617,VALID,19.0195,VALID,119,VALID,0,
2000-08-29, 02:56:00,VALID,917.542,VALID,0,VALID,98.6956,VALID,-0.0509425,VALID,19.0354,VALID,120,VALID,0,
2000-08-29, 02:57:00,VALID,917.541,VALID,0,VALID,98.6142,VALID,-0.0509425,VALID,19.029,VALID,120,VALID,0,
2000-08-29, 02:58:01,VALID,917.557,VALID,0,VALID,98.4578,VALID,-0.0339617,VALID,19.0093,VALID,120,VALID,0,
2000-08-29, 02:59:00,VALID,917.553,VALID,0,VALID,98.3179,VALID,-0.0339617,VALID,18.9934,VALID,120,VALID,0,
2000-08-29, 03:00:00,VALID,917.562,VALID,0,VALID,98.206,VALID,-0.0169808,VALID,18.9897,VALID,120,VALID,0,
2000-08-29, 03:01:01,VALID,917.56,VALID,0,VALID,97.9606,VALID,-0.0169808,VALID,18.9733,VALID,120,VALID,0,
2000-08-29, 03:02:01,VALID,917.546,VALID,0,VALID,97.7546,VALID,-0.0169808,VALID,18.9674,VALID,95,VALID,0,
2000-08-29, 03:03:01,VALID,917.543,VALID,0,VALID,97.6999,VALID,0,VALID,18.9835,VALID,85,VALID,0,
2000-08-29, 03:04:01,VALID,917.534,VALID,0,VALID,97.5244,VALID,0,VALID,18.9865,VALID,85,VALID,0,
2000-08-29, 03:05:00,VALID,917.517,VALID,0,VALID,97.2078,VALID,0,VALID,18.9897,VALID,93,VALID,0,
2000-08-29, 03:06:01,VALID,917.501,VALID,0,VALID,96.8581,VALID,-0.0169808,VALID,18.9447,VALID,104,VALID,0,
2000-08-29, 03:07:01,VALID,917.481,VALID,0,VALID,96.9052,VALID,0,VALID,18.9355,VALID,104,VALID,0,
2000-08-29, 03:08:01,VALID,917.477,VALID,0,VALID,96.9115,VALID,-0.0169808,VALID,18.9094,VALID,104,VALID,0,
2000-08-29, 03:09:01,VALID,917.474,VALID,0,VALID,96.75,VALID,-0.0169808,VALID,18.8764,VALID,87,VALID,0,
2000-08-29, 03:10:01,VALID,917.48,VALID,0,VALID,95.9159,VALID,0,VALID,18.7959,VALID,67,VALID,0,
2000-08-29, 03:11:01,VALID,917.485,VALID,0,VALID,95.9146,VALID,0,VALID,18.7311,VALID,70,VALID,0,
2000-08-29, 03:12:01,VALID,917.495,VALID,0,VALID,96.1015,VALID,0,VALID,18.6833,VALID,70,VALID,0,
2000-08-29, 03:13:01,VALID,917.499,VALID,0,VALID,96.9242,VALID,0,VALID,18.7286,VALID,34,VALID,0,
2000-08-29, 03:14:01,VALID,917.512,VALID,0,VALID,97.2917,VALID,-0.0169808,VALID,18.7705,VALID,346,VALID,0,
2000-08-29, 03:15:01,VALID,917.55,VALID,0,VALID,97.7864,VALID,-0.0169808,VALID,18.8349,VALID,323,VALID,0,
2000-08-29, 03:16:01,VALID,917.581,VALID,0,VALID,98.1869,VALID,0,VALID,18.9288,VALID,305,VALID,0,
2000-08-29, 03:17:01,VALID,917.603,VALID,0,VALID,98.3395,VALID,0,VALID,18.954,VALID,294,VALID,0,
2000-08-29, 03:18:01,VALID,917.598,VALID,0,VALID,98.3904,VALID,-0.0169808,VALID,18.9604,VALID,301,VALID,0,
2000-08-29, 03:19:01,VALID,917.593,VALID,0,VALID,98.4921,VALID,0,VALID,18.9703,VALID,302,VALID,0,
2000-08-29, 03:20:01,VALID,917.587,VALID,0,VALID,98.6193,VALID,0,VALID,19.0064,VALID,303,VALID,0,
2000-08-29, 03:21:01,VALID,917.585,VALID,0,VALID,98.6206,VALID,0,VALID,18.9997,VALID,303,VALID,0,
2000-08-29, 03:22:01,VALID,917.572,VALID,0,VALID,98.5608,VALID,-0.0169808,VALID,18.9477,VALID,303,VALID,0,
2000-08-29, 03:23:01,VALID,917.57,VALID,0,VALID,98.5799,VALID,0,VALID,18.9316,VALID,303,VALID,0,
2000-08-29, 03:24:01,VALID,917.563,VALID,0,VALID,98.5252,VALID,-0.0169808,VALID,18.8931,VALID,303,VALID,0,
2000-08-29, 03:25:01,VALID,917.566,VALID,0,VALID,98.4947,VALID,0,VALID,18.8635,VALID,303,VALID,0,
2000-08-29, 03:26:00,VALID,917.548,VALID,0,VALID,98.4235,VALID,0.0169808,VALID,18.825,VALID,304,VALID,0,
2000-08-29, 03:27:00,VALID,917.541,VALID,0,VALID,98.5684,VALID,0,VALID,18.8838,VALID,307,VALID,0,
2000-08-29, 03:28:00,VALID,917.516,VALID,0,VALID,98.5646,VALID,0,VALID,18.864,VALID,313,VALID,0,
2000-08-29, 03:29:00,VALID,917.507,VALID,0,VALID,98.3929,VALID,0,VALID,18.786,VALID,314,VALID,0,
2000-08-29, 03:30:00,VALID,917.499,VALID,0,VALID,98.6282,VALID,0,VALID,18.8769,VALID,314,VALID,0,
2000-08-29, 03:31:00,VALID,917.49,VALID,0,VALID,98.7515,VALID,-0.0169808,VALID,18.9122,VALID,318,VALID,0,
2000-08-29, 03:32:00,VALID,917.466,VALID,0,VALID,98.7999,VALID,0,VALID,18.9246,VALID,320,VALID,0,
2000-08-29, 03:33:00,VALID,917.441,VALID,0,VALID,98.791,VALID,0.0169808,VALID,18.9313,VALID,320,VALID,0,
2000-08-29, 03:34:00,VALID,917.442,VALID,0,VALID,98.791,VALID,0.0169808,VALID,18.944,VALID,320,VALID,0,
2000-08-29, 03:35:00,VALID,917.419,VALID,0,VALID,98.7541,VALID,0,VALID,18.9346,VALID,320,VALID,0,
2000-08-29, 03:36:00,VALID,917.415,VALID,0,VALID,98.6702,VALID,0,VALID,18.909,VALID,320,VALID,0,
2000-08-29, 03:37:00,VALID,917.424,VALID,0,VALID,98.5913,VALID,-0.0169808,VALID,18.8672,VALID,320,VALID,0,
2000-08-29, 03:38:00,VALID,917.422,VALID,0,VALID,98.4832,VALID,0,VALID,18.828,VALID,320,VALID,0,
2000-08-29, 03:39:00,VALID,917.412,VALID,0,VALID,98.4692,VALID,0,VALID,18.8213,VALID,320,VALID,0,
2000-08-29, 03:40:00,VALID,917.383,VALID,0,VALID,97.6986,VALID,0,VALID,18.6635,VALID,320,VALID,0,
2000-08-29, 03:41:00,VALID,917.356,VALID,0,VALID,97.2638,VALID,0,VALID,18.5477,VALID,320,VALID,0,
2000-08-29, 03:42:00,VALID,917.335,VALID,0,VALID,97.3642,VALID,0.0339617,VALID,18.4789,VALID,323,VALID,0,
2000-08-29, 03:43:00,VALID,917.339,VALID,0,VALID,97.588,VALID,0,VALID,18.4466,VALID,322,VALID,0,
2000-08-29, 03:44:00,VALID,917.326,VALID,0,VALID,97.6923,VALID,-0.0339617,VALID,18.4247,VALID,301,VALID,0,